QZS-2 (QZSS/PRN 184)

Last updated on Jan. 18, 2020, 4:39 a.m. UTC

1 42738U 17028A   20017.57827135 -.00000180  00000-0  00000+0 0  9999
2 42738  43.2436 276.5398 0754257 269.6930 278.8244  1.00281179  9646
UTC
Height (km)
Latitude
Longitude
Inclination
Orbital Period
UTC large
Height (km)
Speed (km/s)
/
Latitude / Longitude
Inclination (degrees)
Orbital Period (minutes)
Azimuth
Elevation
Range (km)
Doppler Factor
iOS Compass Heading
iOS Angle

Next 30 passes for location: Hong Kong

Rise time Rise Azimuth (degrees) Set time Set Azimuth (degrees) Duration Max altitude (degrees)

No matching passes for this satellites